Time,TemperatureF,DewpointF,PressureIn,WindDirection,WindDirectionDegrees,WindSpeedMPH,WindSpeedGustMPH,Humidity,HourlyPrecipIn,Conditions,Clouds,dailyrainin,SoftwareType,DateUTC
2013-06-07 00:02:00,60.6,15.6,30.27,WSW,253,0.0,0.0,17,-99.99,,---,-99.99,VWS V14.01,2013-06-07 07:02:00,
2013-06-07 00:07:00,60.6,15.6,30.27,WSW,253,0.0,0.0,17,-99.99,,---,-99.99,VWS V14.01,2013-06-07 07:07:00,
2013-06-07 00:12:00,60.6,15.6,30.24,WSW,254,0.0,0.0,17,-99.99,,---,-99.99,VWS V14.01,2013-06-07 07:12:00,
2013-06-07 00:18:00,60.6,15.6,30.24,WSW,254,0.0,0.0,17,-99.99,,---,-99.99,VWS V14.01,2013-06-07 07:18:00,
2013-06-07 00:23:00,60.6,15.6,30.27,WSW,250,0.0,0.0,17,-99.99,,---,-99.99,VWS V14.01,2013-06-07 07:23:00,
2013-06-07 00:28:00,60.6,15.6,30.27,WSW,257,0.0,0.0,17,-99.99,,---,-99.99,VWS V14.01,2013-06-07 07:28:00,
2013-06-07 00:33:00,60.6,15.6,30.27,WSW,257,0.0,0.0,17,-99.99,,---,-99.99,VWS V14.01,2013-06-07 07:33:00,
2013-06-07 00:38:00,60.6,15.6,30.27,WSW,252,0.0,0.0,17,-99.99,,---,-99.99,VWS V14.01,2013-06-07 07:38:00,
2013-06-07 00:43:00,60.6,15.6,30.27,WSW,252,0.0,0.0,17,-99.99,,---,-99.99,VWS V14.01,2013-06-07 07:43:00,
2013-06-07 00:48:00,60.6,15.6,30.27,West,261,0.0,0.0,17,-99.99,,---,-99.99,VWS V14.01,2013-06-07 07:48:00,
2013-06-07 00:53:00,60.6,15.6,30.27,WSW,257,0.0,0.0,17,-99.99,,---,-99.99,VWS V14.01,2013-06-07 07:53:00,
2013-06-07 00:58:00,60.6,15.6,30.27,WSW,257,0.0,0.0,17,-99.99,,---,-99.99,VWS V14.01,2013-06-07 07:58:00,
2013-06-07 01:03:00,60.4,15.4,30.27,WSW,254,0.0,0.0,17,-99.99,,---,-99.99,VWS V14.01,2013-06-07 08:03:00,
2013-06-07 01:08:00,60.4,15.4,30.24,WSW,254,0.0,0.0,17,-99.99,,---,-99.99,VWS V14.01,2013-06-07 08:08:00,
2013-06-07 01:13:00,60.6,15.6,30.24,WSW,252,0.0,0.0,17,-99.99,,---,-99.99,VWS V14.01,2013-06-07 08:13:00,
2013-06-07 01:18:00,60.6,15.6,30.24,WSW,252,0.0,0.0,17,-99.99,,---,-99.99,VWS V14.01,2013-06-07 08:18:00,
2013-06-07 01:23:00,60.8,14.4,30.24,WSW,257,0.0,0.0,16,-99.99,,---,-99.99,VWS V14.01,2013-06-07 08:23:00,
2013-06-07 01:28:00,60.8,14.4,30.27,WSW,252,0.0,0.0,16,-99.99,,---,-99.99,VWS V14.01,2013-06-07 08:28:00,
2013-06-07 01:33:00,60.8,14.4,30.27,WSW,252,0.0,0.0,16,-99.99,,---,-99.99,VWS V14.01,2013-06-07 08:33:00,
2013-06-07 01:38:00,60.8,14.4,30.27,West,263,0.0,0.0,16,-99.99,,---,-99.99,VWS V14.01,2013-06-07 08:38:00,
2013-06-07 01:43:00,60.8,14.4,30.27,West,263,0.0,0.0,16,-99.99,,---,-99.99,VWS V14.01,2013-06-07 08:43:00,
2013-06-07 01:48:00,60.6,15.6,30.27,WSW,252,0.0,0.0,17,-99.99,,---,-99.99,VWS V14.01,2013-06-07 08:48:00,
2013-06-07 01:53:00,60.6,15.6,30.27,West,259,0.0,0.0,17,-99.99,,---,-99.99,VWS V14.01,2013-06-07 08:53:00,
2013-06-07 01:58:00,61.0,14.5,30.27,West,259,0.0,0.0,16,-99.99,,---,-99.99,VWS V14.01,2013-06-07 08:58:00,
2013-06-07 02:03:00,61.0,14.5,30.27,West,264,0.0,0.0,16,-99.99,,---,-99.99,VWS V14.01,2013-06-07 09:03:00,
2013-06-07 02:08:00,61.7,15.1,30.27,West,264,0.0,0.0,16,-99.99,,---,-99.99,VWS V14.01,2013-06-07 09:08:00,
2013-06-07 02:13:00,61.9,15.2,30.24,West,259,0.0,0.0,16,-99.99,,---,-99.99,VWS V14.01,2013-06-07 09:13:00,
2013-06-07 02:18:00,61.9,15.2,30.24,West,259,0.0,0.0,16,-99.99,,---,-99.99,VWS V14.01,2013-06-07 09:18:00,
2013-06-07 02:23:00,61.3,14.8,30.24,West,264,0.0,0.0,16,-99.99,,---,-99.99,VWS V14.01,2013-06-07 09:23:00,
2013-06-07 02:28:00,61.3,14.8,30.24,West,262,0.0,0.0,16,-99.99,,---,-99.99,VWS V14.01,2013-06-07 09:28:00,
2013-06-07 02:33:00,61.3,14.8,30.24,West,262,0.0,0.0,16,-99.99,,---,-99.99,VWS V14.01,2013-06-07 09:33:00,
2013-06-07 02:38:00,61.3,14.8,30.24,West,262,0.0,0.0,16,-99.99,,---,-99.99,VWS V14.01,2013-06-07 09:38:00,
2013-06-07 02:43:00,61.3,14.8,30.24,West,262,0.0,0.0,16,-99.99,,---,-99.99,VWS V14.01,2013-06-07 09:43:00,
2013-06-07 02:48:00,61.7,15.1,30.24,West,261,0.0,0.0,16,-99.99,,---,-99.99,VWS V14.01,2013-06-07 09:48:00,
2013-06-07 02:53:00,61.7,15.1,30.24,West,261,0.0,0.0,16,-99.99,,---,-99.99,VWS V14.01,2013-06-07 09:53:00,
2013-06-07 02:58:00,61.9,15.2,30.24,West,265,0.0,0.0,16,-99.99,,---,-99.99,VWS V14.01,2013-06-07 09:58:00,
2013-06-07 03:03:00,61.9,15.2,30.24,West,270,0.0,0.0,16,-99.99,,---,-99.99,VWS V14.01,2013-06-07 10:03:00,
2013-06-07 03:08:00,62.4,15.7,30.24,West,270,0.0,0.0,16,-99.99,,---,-99.99,VWS V14.01,2013-06-07 10:08:00,
2013-06-07 03:13:00,62.6,15.8,30.24,West,269,0.0,0.0,16,-99.99,,---,-99.99,VWS V14.01,2013-06-07 10:13:00,
2013-06-07 03:18:00,62.6,15.8,30.24,West,269,0.0,0.0,16,-99.99,,---,-99.99,VWS V14.01,2013-06-07 10:18:00,
2013-06-07 03:23:00,62.4,15.7,30.24,West,270,0.0,0.0,16,-99.99,,---,-99.99,VWS V14.01,2013-06-07 10:23:00,
2013-06-07 03:28:00,62.4,15.7,30.24,West,265,0.0,0.0,16,-99.99,,---,-99.99,VWS V14.01,2013-06-07 10:28:00,
2013-06-07 03:33:00,63.1,16.2,30.24,West,265,0.0,0.0,16,-99.99,,---,-99.99,VWS V14.01,2013-06-07 10:33:00,
2013-06-07 03:38:00,63.1,16.2,30.24,West,271,0.0,0.0,16,-99.99,,---,-99.99,VWS V14.01,2013-06-07 10:38:00,
2013-06-07 03:43:00,63.3,16.4,30.24,West,271,0.0,0.0,16,-99.99,,---,-99.99,VWS V14.01,2013-06-07 10:43:00,
2013-06-07 03:48:00,63.0,16.1,30.24,West,269,0.0,0.0,16,-99.99,,---,-99.99,VWS V14.01,2013-06-07 10:48:00,
2013-06-07 03:53:00,63.0,16.1,30.24,West,269,0.0,0.0,16,-99.99,,---,-99.99,VWS V14.01,2013-06-07 10:53:00,
2013-06-07 03:58:00,62.4,15.7,30.24,West,273,0.0,0.0,16,-99.99,,---,-99.99,VWS V14.01,2013-06-07 10:58:00,
2013-06-07 04:03:00,62.4,15.7,30.24,West,272,0.0,0.0,16,-99.99,,---,-99.99,VWS V14.01,2013-06-07 11:03:00,
2013-06-07 04:08:00,62.6,15.8,30.24,West,272,0.0,0.0,16,-99.99,,---,-99.99,VWS V14.01,2013-06-07 11:08:00,
2013-06-07 04:13:00,63.0,16.1,30.24,West,272,0.0,0.0,16,-99.99,,---,-99.99,VWS V14.01,2013-06-07 11:13:00,
2013-06-07 04:18:00,63.0,16.1,30.24,West,272,0.0,0.0,16,-99.99,,---,-99.99,VWS V14.01,2013-06-07 11:18:00,
2013-06-07 04:23:00,63.0,16.1,30.24,West,271,0.0,0.0,16,-99.99,,---,-99.99,VWS V14.01,2013-06-07 11:23:00,
2013-06-07 04:28:00,63.0,16.1,30.24,West,270,0.0,0.0,16,-99.99,,---,-99.99,VWS V14.01,2013-06-07 11:28:00,
2013-06-07 04:33:00,62.6,15.8,30.24,West,270,0.0,0.0,16,-99.99,,---,-99.99,VWS V14.01,2013-06-07 11:33:00,
2013-06-07 04:38:00,62.6,15.8,30.24,West,279,0.0,0.0,16,-99.99,,---,-99.99,VWS V14.01,2013-06-07 11:38:00,
2013-06-07 04:43:00,62.6,15.8,30.24,West,279,0.0,0.0,16,-99.99,,---,-99.99,VWS V14.01,2013-06-07 11:43:00,
2013-06-07 04:48:00,62.6,15.8,30.24,West,277,0.0,0.0,16,-99.99,,---,-99.99,VWS V14.01,2013-06-07 11:48:00,
2013-06-07 04:53:00,62.6,15.8,30.24,West,277,0.0,0.0,16,-99.99,,---,-99.99,VWS V14.01,2013-06-07 11:53:00,
2013-06-07 04:58:00,63.0,16.1,30.24,West,266,0.0,0.0,16,-99.99,,---,-99.99,VWS V14.01,2013-06-07 11:58:00,
2013-06-07 05:03:00,62.8,15.9,30.24,West,275,0.0,0.0,16,-99.99,,---,-99.99,VWS V14.01,2013-06-07 12:03:00,
2013-06-07 05:08:00,62.4,15.7,30.24,West,275,0.0,0.0,16,-99.99,,---,-99.99,VWS V14.01,2013-06-07 12:08:00,
2013-06-07 05:13:00,62.4,15.7,30.24,West,277,0.0,0.0,16,-99.99,,---,-99.99,VWS V14.01,2013-06-07 12:13:00,
2013-06-07 05:18:00,62.4,15.7,30.24,West,277,0.0,0.0,16,-99.99,,---,-99.99,VWS V14.01,2013-06-07 12:18:00,
2013-06-07 05:23:00,62.8,15.9,30.24,West,270,0.0,0.0,16,-99.99,,---,-99.99,VWS V14.01,2013-06-07 12:23:00,
2013-06-07 05:28:00,62.8,15.9,30.24,West,271,0.0,0.0,16,-99.99,,---,-99.99,VWS V14.01,2013-06-07 12:28:00,
2013-06-07 05:33:00,62.4,15.7,30.24,West,271,0.0,0.0,16,-99.99,,---,-99.99,VWS V14.01,2013-06-07 12:33:00,
2013-06-07 05:39:00,62.6,15.8,30.24,West,267,0.0,0.0,16,-99.99,,---,-99.99,VWS V14.01,2013-06-07 12:39:00,
2013-06-07 05:44:00,62.6,15.8,30.24,West,267,0.0,0.0,16,-99.99,,---,-99.99,VWS V14.01,2013-06-07 12:44:00,
2013-06-07 05:49:00,62.4,15.7,30.24,West,281,0.0,0.0,16,-99.99,,---,-99.99,VWS V14.01,2013-06-07 12:49:00,
2013-06-07 05:54:00,62.4,15.7,30.24,West,281,0.0,0.0,16,-99.99,,---,-99.99,VWS V14.01,2013-06-07 12:54:00,
2013-06-07 05:59:00,62.6,15.8,30.24,West,278,0.0,0.0,16,-99.99,,---,-99.99,VWS V14.01,2013-06-07 12:59:00,
2013-06-07 06:03:00,62.6,15.8,30.24,WNW,292,0.0,0.0,16,-99.99,,---,-99.99,VWS V14.01,2013-06-07 13:03:00,
2013-06-07 06:08:00,63.0,16.1,30.24,WNW,292,0.0,0.0,16,-99.99,,---,-99.99,VWS V14.01,2013-06-07 13:08:00,
2013-06-07 06:14:00,64.2,17.1,30.24,NW,323,0.0,0.0,16,-99.99,,---,-99.99,VWS V14.01,2013-06-07 13:14:00,
2013-06-07 06:19:00,64.4,15.8,30.24,NW,323,0.0,0.0,15,-99.99,,---,-99.99,VWS V14.01,2013-06-07 13:19:00,
2013-06-07 06:24:00,65.1,16.4,30.24,NW,310,0.0,0.0,15,-99.99,,---,-99.99,VWS V14.01,2013-06-07 13:24:00,
2013-06-07 06:29:00,65.3,16.5,30.24,NW,310,0.0,0.0,15,-99.99,,---,-99.99,VWS V14.01,2013-06-07 13:29:00,
2013-06-07 06:34:00,66.4,17.4,30.24,NW,319,0.0,0.0,15,-99.99,,---,-99.99,VWS V14.01,2013-06-07 13:34:00,
2013-06-07 06:39:00,66.4,17.4,30.24,North,7,0.0,0.0,15,-99.99,,---,-99.99,VWS V14.01,2013-06-07 13:39:00,
2013-06-07 06:44:00,67.3,18.1,30.24,North,7,0.0,0.0,15,-99.99,,---,-99.99,VWS V14.01,2013-06-07 13:44:00,
2013-06-07 06:49:00,67.8,18.5,30.24,North,7,0.0,0.0,15,-99.99,,---,-99.99,VWS V14.01,2013-06-07 13:49:00,
2013-06-07 06:54:00,67.8,18.5,30.24,North,7,0.0,0.0,15,-99.99,,---,-99.99,VWS V14.01,2013-06-07 13:54:00,
2013-06-07 06:59:00,67.8,18.5,30.24,NW,318,0.0,0.0,15,-99.99,,---,-99.99,VWS V14.01,2013-06-07 13:59:00,
2013-06-07 07:04:00,67.8,18.5,30.24,NW,318,0.0,0.0,15,-99.99,,---,-99.99,VWS V14.01,2013-06-07 14:04:00,
2013-06-07 07:09:00,68.5,19.1,30.24,NW,318,0.0,0.0,15,-99.99,,---,-99.99,VWS V14.01,2013-06-07 14:09:00,
2013-06-07 07:14:00,68.5,19.1,30.24,NW,318,0.0,0.0,15,-99.99,,---,-99.99,VWS V14.01,2013-06-07 14:14:00,
2013-06-07 07:19:00,69.6,20.0,30.24,NW,318,0.0,0.0,15,-99.99,,---,-99.99,VWS V14.01,2013-06-07 14:19:00,
2013-06-07 07:24:00,70.5,19.1,30.24,NW,318,0.0,0.0,14,-99.99,,---,-99.99,VWS V14.01,2013-06-07 14:24:00,
2013-06-07 07:29:00,70.7,19.2,30.24,NW,318,0.0,0.0,14,-99.99,,---,-99.99,VWS V14.01,2013-06-07 14:29:00,
2013-06-07 07:34:00,70.7,19.2,30.24,NW,318,0.0,0.0,14,-99.99,,---,-99.99,VWS V14.01,2013-06-07 14:34:00,
2013-06-07 07:39:00,70.7,19.2,30.21,NW,318,0.0,0.0,14,-99.99,,---,-99.99,VWS V14.01,2013-06-07 14:39:00,
2013-06-07 07:44:00,70.3,18.9,30.21,NW,318,0.0,0.0,14,-99.99,,---,-99.99,VWS V14.01,2013-06-07 14:44:00,
2013-06-07 07:49:00,70.3,18.9,30.21,NW,318,0.0,0.0,14,-99.99,,---,-99.99,VWS V14.01,2013-06-07 14:49:00,
2013-06-07 07:54:00,70.2,18.8,30.21,NW,318,0.0,0.0,14,-99.99,,---,-99.99,VWS V14.01,2013-06-07 14:54:00,
2013-06-07 07:59:00,70.3,18.9,30.21,NW,318,0.0,0.0,14,-99.99,,---,-99.99,VWS V14.01,2013-06-07 14:59:00,
2013-06-07 08:04:00,70.7,19.2,30.21,NW,318,0.0,0.0,14,-99.99,,---,-99.99,VWS V14.01,2013-06-07 15:04:00,
2013-06-07 08:09:00,70.9,19.4,30.21,NW,318,0.0,0.0,14,-99.99,,---,-99.99,VWS V14.01,2013-06-07 15:09:00,
2013-06-07 08:14:00,70.9,19.4,30.21,NW,318,0.0,0.0,14,-99.99,,---,-99.99,VWS V14.01,2013-06-07 15:14:00,
2013-06-07 08:19:00,71.2,19.6,30.21,NW,318,0.0,0.0,14,-99.99,,---,-99.99,VWS V14.01,2013-06-07 15:19:00,
2013-06-07 08:24:00,71.6,19.9,30.21,NW,318,0.0,0.0,14,-99.99,,---,-99.99,VWS V14.01,2013-06-07 15:24:00,
2013-06-07 08:29:00,71.6,19.9,30.21,NW,318,0.0,0.0,14,-99.99,,---,-99.99,VWS V14.01,2013-06-07 15:29:00,
2013-06-07 08:34:00,72.3,20.5,30.21,NW,318,0.0,0.0,14,-99.99,,---,-99.99,VWS V14.01,2013-06-07 15:34:00,
2013-06-07 08:39:00,72.3,20.5,30.21,NW,318,0.0,0.0,14,-99.99,,---,-99.99,VWS V14.01,2013-06-07 15:39:00,
2013-06-07 08:44:00,72.3,20.5,30.21,NW,318,0.0,0.0,14,-99.99,,---,-99.99,VWS V14.01,2013-06-07 15:44:00,
2013-06-07 08:49:00,73.2,21.2,30.21,NW,318,0.0,0.0,14,-99.99,,---,-99.99,VWS V14.01,2013-06-07 15:49:00,
2013-06-07 08:54:00,73.4,19.6,30.21,NW,318,0.0,0.0,13,-99.99,,---,-99.99,VWS V14.01,2013-06-07 15:54:00,
2013-06-07 08:59:00,73.8,19.9,30.21,NW,318,0.0,0.0,13,-99.99,,---,-99.99,VWS V14.01,2013-06-07 15:59:00,
2013-06-07 09:04:00,74.1,25.1,30.21,NW,318,0.0,0.0,16,-99.99,,---,-99.99,VWS V14.01,2013-06-07 16:04:00,
2013-06-07 09:09:00,74.1,25.1,30.21,NW,318,0.0,0.0,16,-99.99,,---,-99.99,VWS V14.01,2013-06-07 16:09:00,
2013-06-07 09:14:00,74.1,25.1,30.21,NW,318,0.0,0.0,16,-99.99,,---,-99.99,VWS V14.01,2013-06-07 16:14:00,
2013-06-07 09:19:00,74.8,25.7,30.21,NW,318,0.0,0.0,16,-99.99,,---,-99.99,VWS V14.01,2013-06-07 16:19:00,
2013-06-07 09:24:00,74.8,25.7,30.21,NNE,20,4.0,4.0,16,-99.99,,---,-99.99,VWS V14.01,2013-06-07 16:24:00,
2013-06-07 09:29:00,75.2,24.4,30.21,NNE,20,4.0,4.0,15,-99.99,,---,-99.99,VWS V14.01,2013-06-07 16:29:00,
2013-06-07 09:34:00,75.7,24.9,30.21,NNE,20,4.0,4.0,15,-99.99,,---,-99.99,VWS V14.01,2013-06-07 16:34:00,
2013-06-07 09:39:00,75.7,24.9,30.21,NNE,20,4.0,4.0,15,-99.99,,---,-99.99,VWS V14.01,2013-06-07 16:39:00,
2013-06-07 09:44:00,75.7,24.9,30.21,NNE,20,4.0,4.0,15,-99.99,,---,-99.99,VWS V14.01,2013-06-07 16:44:00,
2013-06-07 09:49:00,75.7,24.9,30.21,NNE,20,4.0,4.0,15,-99.99,,---,-99.99,VWS V14.01,2013-06-07 16:49:00,
2013-06-07 09:54:00,76.3,25.3,30.21,NNE,20,4.0,4.0,15,-99.99,,---,-99.99,VWS V14.01,2013-06-07 16:54:00,
2013-06-07 09:59:00,77.2,26.0,30.21,NNE,20,4.0,4.0,15,-99.99,,---,-99.99,VWS V14.01,2013-06-07 16:59:00,
2013-06-07 10:04:00,77.5,26.3,30.21,NNE,20,4.0,4.0,15,-99.99,,---,-99.99,VWS V14.01,2013-06-07 17:04:00,
2013-06-07 10:09:00,77.2,26.0,30.21,NNE,29,8.7,8.7,15,-99.99,,---,-99.99,VWS V14.01,2013-06-07 17:09:00,
2013-06-07 10:14:00,77.2,26.0,30.21,NNE,29,8.7,8.7,15,-99.99,,---,-99.99,VWS V14.01,2013-06-07 17:14:00,
2013-06-07 10:19:00,78.3,26.9,30.21,NNE,29,8.7,8.7,15,-99.99,,---,-99.99,VWS V14.01,2013-06-07 17:19:00,
2013-06-07 10:24:00,78.6,27.1,30.21,NNE,29,8.7,8.7,15,-99.99,,---,-99.99,VWS V14.01,2013-06-07 17:24:00,
2013-06-07 10:29:00,78.8,27.3,30.21,NE,48,0.0,0.0,15,-99.99,,---,-99.99,VWS V14.01,2013-06-07 17:29:00,
2013-06-07 10:34:00,79.0,27.4,30.21,NE,48,0.0,0.0,15,-99.99,,---,-99.99,VWS V14.01,2013-06-07 17:34:00,
2013-06-07 10:39:00,79.0,27.4,30.21,NE,48,0.0,0.0,15,-99.99,,---,-99.99,VWS V14.01,2013-06-07 17:39:00,
2013-06-07 10:44:00,79.2,27.6,30.21,NE,48,0.0,0.0,15,-99.99,,---,-99.99,VWS V14.01,2013-06-07 17:44:00,
2013-06-07 10:49:00,79.2,27.6,30.21,NE,48,0.0,0.0,15,-99.99,,---,-99.99,VWS V14.01,2013-06-07 17:49:00,
2013-06-07 10:54:00,80.2,28.4,30.21,NE,48,0.0,0.0,15,-99.99,,---,-99.99,VWS V14.01,2013-06-07 17:54:00,
2013-06-07 11:00:00,80.4,28.6,30.21,NE,48,0.0,0.0,15,-99.99,,---,-99.99,VWS V14.01,2013-06-07 18:00:00,
2013-06-07 11:05:00,80.4,28.6,30.21,NE,48,0.0,0.0,15,-99.99,,---,-99.99,VWS V14.01,2013-06-07 18:05:00,
2013-06-07 11:10:00,81.9,28.0,30.21,ENE,77,0.0,0.0,14,-99.99,,---,-99.99,VWS V14.01,2013-06-07 18:10:00,
2013-06-07 11:15:00,81.9,28.0,30.21,NNE,19,0.0,0.0,14,-99.99,,---,-99.99,VWS V14.01,2013-06-07 18:15:00,
2013-06-07 11:20:00,80.6,27.0,30.21,NE,38,0.0,0.0,14,-99.99,,---,-99.99,VWS V14.01,2013-06-07 18:20:00,
2013-06-07 11:25:00,80.2,28.4,30.21,ENE,60,0.0,0.0,15,-99.99,,---,-99.99,VWS V14.01,2013-06-07 18:25:00,
2013-06-07 11:30:00,80.1,28.3,30.21,NE,43,0.0,0.0,15,-99.99,,---,-99.99,VWS V14.01,2013-06-07 18:30:00,
2013-06-07 11:35:00,80.6,27.0,30.21,NE,54,0.0,0.0,14,-99.99,,---,-99.99,VWS V14.01,2013-06-07 18:35:00,
2013-06-07 11:40:00,80.6,27.0,30.21,NNE,28,0.0,0.0,14,-99.99,,---,-99.99,VWS V14.01,2013-06-07 18:40:00,
2013-06-07 11:45:00,81.1,27.5,30.21,NE,42,0.0,0.0,14,-99.99,,---,-99.99,VWS V14.01,2013-06-07 18:45:00,
2013-06-07 11:50:00,81.0,27.3,30.21,NNE,33,0.0,0.0,14,-99.99,,---,-99.99,VWS V14.01,2013-06-07 18:50:00,
2013-06-07 11:55:00,81.0,27.3,30.21,NE,46,0.0,0.0,14,-99.99,,---,-99.99,VWS V14.01,2013-06-07 18:55:00,
2013-06-07 12:00:00,81.7,27.9,30.21,NE,38,0.0,0.0,14,-99.99,,---,-99.99,VWS V14.01,2013-06-07 19:00:00,
2013-06-07 12:05:00,81.7,27.9,30.21,NE,39,13.2,13.2,14,-99.99,,---,-99.99,VWS V14.01,2013-06-07 19:05:00,
2013-06-07 12:10:00,81.9,28.0,30.21,NNE,23,0.0,0.0,14,-99.99,,---,-99.99,VWS V14.01,2013-06-07 19:10:00,
2013-06-07 12:15:00,81.9,28.0,30.21,NE,38,7.6,7.6,14,-99.99,,---,-99.99,VWS V14.01,2013-06-07 19:15:00,
2013-06-07 12:20:00,81.9,28.0,30.21,ENE,60,0.0,0.0,14,-99.99,,---,-99.99,VWS V14.01,2013-06-07 19:20:00,
2013-06-07 12:25:00,81.9,28.0,30.21,NE,37,0.0,0.0,14,-99.99,,---,-99.99,VWS V14.01,2013-06-07 19:25:00,
2013-06-07 12:30:00,81.9,28.0,30.21,East,85,0.0,0.0,14,-99.99,,---,-99.99,VWS V14.01,2013-06-07 19:30:00,
2013-06-07 12:35:00,83.1,29.0,30.21,NE,49,0.0,0.0,14,-99.99,,---,-99.99,VWS V14.01,2013-06-07 19:35:00,
2013-06-07 12:41:00,83.1,29.0,30.21,NE,37,0.0,0.0,14,-99.99,,---,-99.99,VWS V14.01,2013-06-07 19:41:00,
2013-06-07 12:46:00,83.1,29.0,30.21,NE,45,0.0,0.0,14,-99.99,,---,-99.99,VWS V14.01,2013-06-07 19:46:00,
2013-06-07 12:51:00,83.1,29.0,30.21,NE,39,0.0,0.0,14,-99.99,,---,-99.99,VWS V14.01,2013-06-07 19:51:00,
2013-06-07 12:56:00,83.1,29.0,30.21,ENE,57,0.0,10.5,14,-99.99,,---,-99.99,VWS V14.01,2013-06-07 19:56:00,
2013-06-07 13:01:00,82.6,28.6,30.21,ENE,57,0.0,0.0,14,-99.99,,---,-99.99,VWS V14.01,2013-06-07 20:01:00,
2013-06-07 13:06:00,82.6,28.6,30.21,NNE,31,0.0,0.0,14,-99.99,,---,-99.99,VWS V14.01,2013-06-07 20:06:00,
2013-06-07 13:11:00,82.6,28.6,30.21,ENE,78,0.0,0.0,14,-99.99,,---,-99.99,VWS V14.01,2013-06-07 20:11:00,
2013-06-07 13:16:00,82.6,28.6,30.21,NNE,24,0.0,0.0,14,-99.99,,---,-99.99,VWS V14.01,2013-06-07 20:16:00,
2013-06-07 13:21:00,84.2,28.1,30.21,NE,41,0.0,0.0,13,-99.99,,---,-99.99,VWS V14.01,2013-06-07 20:21:00,
2013-06-07 13:26:00,84.2,28.1,30.21,East,87,0.0,0.0,13,-99.99,,---,-99.99,VWS V14.01,2013-06-07 20:26:00,
2013-06-07 13:31:00,84.2,28.1,30.21,ENE,57,0.0,0.0,13,-99.99,,---,-99.99,VWS V14.01,2013-06-07 20:31:00,
2013-06-07 13:36:00,84.2,28.1,30.21,ENE,57,0.0,0.0,13,-99.99,,---,-99.99,VWS V14.01,2013-06-07 20:36:00,
2013-06-07 13:41:00,84.2,28.1,30.21,ENE,67,0.0,0.0,13,-99.99,,---,-99.99,VWS V14.01,2013-06-07 20:41:00,
2013-06-07 13:46:00,82.9,28.9,30.21,NNE,27,0.0,0.0,14,-99.99,,---,-99.99,VWS V14.01,2013-06-07 20:46:00,
2013-06-07 13:52:00,82.9,28.9,30.21,ENE,58,0.0,0.0,14,-99.99,,---,-99.99,VWS V14.01,2013-06-07 20:52:00,
2013-06-07 13:57:00,82.9,28.9,30.21,NNE,32,0.0,0.0,14,-99.99,,---,-99.99,VWS V14.01,2013-06-07 20:57:00,
2013-06-07 14:02:00,86.0,29.5,30.21,ENE,71,0.0,0.0,13,-99.99,,---,-99.99,VWS V14.01,2013-06-07 21:02:00,
2013-06-07 14:07:00,86.0,29.5,30.21,NE,51,0.0,0.0,13,-99.99,,---,-99.99,VWS V14.01,2013-06-07 21:07:00,
2013-06-07 14:12:00,82.8,28.8,30.21,NNE,28,0.0,0.0,14,-99.99,,---,-99.99,VWS V14.01,2013-06-07 21:12:00,
2013-06-07 14:17:00,82.8,28.8,30.21,NNE,21,0.0,0.0,14,-99.99,,---,-99.99,VWS V14.01,2013-06-07 21:17:00,
2013-06-07 14:22:00,82.8,28.8,30.21,NNE,19,0.0,0.0,14,-99.99,,---,-99.99,VWS V14.01,2013-06-07 21:22:00,
2013-06-07 14:27:00,82.8,28.8,30.21,NNE,28,0.0,0.0,14,-99.99,,---,-99.99,VWS V14.01,2013-06-07 21:27:00,
2013-06-07 14:32:00,80.2,28.4,30.21,East,97,0.0,0.0,15,-99.99,,---,-99.99,VWS V14.01,2013-06-07 21:32:00,
2013-06-07 14:37:00,80.2,28.4,30.21,NE,41,0.0,0.0,15,-99.99,,---,-99.99,VWS V14.01,2013-06-07 21:37:00,
2013-06-07 14:42:00,80.2,28.4,30.21,North,0,0.0,0.0,15,-99.99,,---,-99.99,VWS V14.01,2013-06-07 21:42:00,
2013-06-07 14:47:00,80.2,28.4,30.21,North,357,0.0,0.0,15,-99.99,,---,-99.99,VWS V14.01,2013-06-07 21:47:00,
2013-06-07 14:52:00,80.2,28.4,30.21,NNE,20,0.0,0.0,15,-99.99,,---,-99.99,VWS V14.01,2013-06-07 21:52:00,
2013-06-07 14:57:00,81.1,27.5,30.21,NE,36,0.0,0.0,14,-99.99,,---,-99.99,VWS V14.01,2013-06-07 21:57:00,
2013-06-07 15:02:00,81.1,27.5,30.21,NNW,342,0.0,0.0,14,-99.99,,---,-99.99,VWS V14.01,2013-06-07 22:02:00,
2013-06-07 15:08:00,81.1,27.5,30.21,ENE,71,0.0,0.0,14,-99.99,,---,-99.99,VWS V14.01,2013-06-07 22:08:00,
2013-06-07 15:13:00,81.1,27.5,30.21,WNW,303,0.0,0.0,14,-99.99,,---,-99.99,VWS V14.01,2013-06-07 22:13:00,
2013-06-07 15:18:00,77.5,26.3,30.21,North,0,0.0,0.0,15,-99.99,,---,-99.99,VWS V14.01,2013-06-07 22:18:00,
2013-06-07 15:23:00,77.5,26.3,30.21,WNW,294,0.0,0.0,15,-99.99,,---,-99.99,VWS V14.01,2013-06-07 22:23:00,
2013-06-07 15:28:00,77.5,26.3,30.21,West,277,0.0,0.0,15,-99.99,,---,-99.99,VWS V14.01,2013-06-07 22:28:00,
2013-06-07 15:33:00,77.0,25.9,30.21,WSW,253,0.0,0.0,15,-99.99,,---,-99.99,VWS V14.01,2013-06-07 22:33:00,
2013-06-07 15:38:00,77.0,25.9,30.21,SSW,201,0.0,0.0,15,-99.99,,---,-99.99,VWS V14.01,2013-06-07 22:38:00,
2013-06-07 15:43:00,78.6,27.1,30.21,ENE,70,0.0,0.0,15,-99.99,,---,-99.99,VWS V14.01,2013-06-07 22:43:00,
2013-06-07 15:49:00,78.6,27.1,30.21,North,357,0.0,0.0,15,-99.99,,---,-99.99,VWS V14.01,2013-06-07 22:49:00,
2013-06-07 15:54:00,79.3,27.7,30.21,NE,38,0.0,0.0,15,-99.99,,---,-99.99,VWS V14.01,2013-06-07 22:54:00,
2013-06-07 15:59:00,80.4,28.6,30.21,SW,220,0.0,0.0,15,-99.99,,---,-99.99,VWS V14.01,2013-06-07 22:59:00,
2013-06-07 16:04:00,80.4,28.6,30.21,North,357,0.0,0.0,15,-99.99,,---,-99.99,VWS V14.01,2013-06-07 23:04:00,
2013-06-07 16:09:00,79.9,28.1,30.21,North,357,0.0,0.0,15,-99.99,,---,-99.99,VWS V14.01,2013-06-07 23:09:00,
2013-06-07 16:14:00,79.9,28.1,30.21,WNW,298,0.0,0.0,15,-99.99,,---,-99.99,VWS V14.01,2013-06-07 23:14:00,
2013-06-07 16:19:00,80.2,28.4,30.21,NNW,339,0.0,0.0,15,-99.99,,---,-99.99,VWS V14.01,2013-06-07 23:19:00,
2013-06-07 16:24:00,80.2,28.4,30.21,West,270,0.0,0.0,15,-99.99,,---,-99.99,VWS V14.01,2013-06-07 23:24:00,
2013-06-07 16:29:00,78.4,27.0,30.21,SSW,197,0.0,0.0,15,-99.99,,---,-99.99,VWS V14.01,2013-06-07 23:29:00,
2013-06-07 16:34:00,81.0,27.3,30.21,East,85,0.0,0.0,14,-99.99,,---,-99.99,VWS V14.01,2013-06-07 23:34:00,
2013-06-07 16:39:00,81.0,27.3,30.21,WNW,292,0.0,0.0,14,-99.99,,---,-99.99,VWS V14.01,2013-06-07 23:39:00,
2013-06-07 16:44:00,76.3,25.3,30.21,West,271,0.0,0.0,15,-99.99,,---,-99.99,VWS V14.01,2013-06-07 23:44:00,
2013-06-07 16:49:00,76.3,25.3,30.21,West,268,0.0,0.0,15,-99.99,,---,-99.99,VWS V14.01,2013-06-07 23:49:00,
2013-06-07 16:55:00,75.2,24.4,30.21,WNW,284,0.0,0.0,15,-99.99,,---,-99.99,VWS V14.01,2013-06-07 23:55:00,
2013-06-07 17:00:00,76.1,25.1,30.21,West,281,0.0,0.0,15,-99.99,,---,-99.99,VWS V14.01,2013-06-08 00:00:00,
2013-06-07 17:05:00,76.1,25.1,30.21,West,266,0.0,0.0,15,-99.99,,---,-99.99,VWS V14.01,2013-06-08 00:05:00,
2013-06-07 17:10:00,75.0,25.8,30.21,West,267,0.0,0.0,16,-99.99,,---,-99.99,VWS V14.01,2013-06-08 00:10:00,
2013-06-07 17:15:00,73.9,25.0,30.21,WNW,282,0.0,0.0,16,-99.99,,---,-99.99,VWS V14.01,2013-06-08 00:15:00,
2013-06-07 17:20:00,73.9,25.0,30.21,NNW,341,0.0,0.0,16,-99.99,,---,-99.99,VWS V14.01,2013-06-08 00:20:00,
2013-06-07 17:25:00,73.9,25.0,30.21,West,268,0.0,0.0,16,-99.99,,---,-99.99,VWS V14.01,2013-06-08 00:25:00,
2013-06-07 17:30:00,73.9,25.0,30.21,West,267,0.0,0.0,16,-99.99,,---,-99.99,VWS V14.01,2013-06-08 00:30:00,
2013-06-07 17:35:00,71.8,20.1,30.21,West,271,0.0,0.0,14,-99.99,,---,-99.99,VWS V14.01,2013-06-08 00:35:00,
2013-06-07 17:40:00,71.8,20.1,30.21,West,271,0.0,0.0,14,-99.99,,---,-99.99,VWS V14.01,2013-06-08 00:40:00,
2013-06-07 17:45:00,71.4,19.8,30.21,West,274,0.0,0.0,14,-99.99,,---,-99.99,VWS V14.01,2013-06-08 00:45:00,
2013-06-07 17:50:00,71.4,19.8,30.21,West,263,0.0,0.0,14,-99.99,,---,-99.99,VWS V14.01,2013-06-08 00:50:00,
2013-06-07 17:56:00,70.5,19.1,30.21,West,270,0.0,0.0,14,-99.99,,---,-99.99,VWS V14.01,2013-06-08 00:56:00,
2013-06-07 18:01:00,69.3,19.7,30.21,West,267,0.0,0.0,15,-99.99,,---,-99.99,VWS V14.01,2013-06-08 01:01:00,
2013-06-07 18:06:00,69.1,19.5,30.21,West,265,0.0,0.0,15,-99.99,,---,-99.99,VWS V14.01,2013-06-08 01:06:00,
2013-06-07 18:11:00,68.5,19.1,30.21,West,263,0.0,0.0,15,-99.99,,---,-99.99,VWS V14.01,2013-06-08 01:11:00,
2013-06-07 18:16:00,68.5,19.1,30.21,West,273,0.0,0.0,15,-99.99,,---,-99.99,VWS V14.01,2013-06-08 01:16:00,
2013-06-07 18:21:00,67.6,18.4,30.21,West,261,7.2,7.2,15,-99.99,,---,-99.99,VWS V14.01,2013-06-08 01:21:00,
2013-06-07 18:26:00,67.8,18.5,30.21,West,260,18.3,18.3,15,-99.99,,---,-99.99,VWS V14.01,2013-06-08 01:26:00,
2013-06-07 18:32:00,67.8,18.5,30.21,WSW,254,12.8,12.8,15,-99.99,,---,-99.99,VWS V14.01,2013-06-08 01:32:00,
2013-06-07 18:37:00,67.5,18.2,30.21,West,276,15.4,15.4,15,-99.99,,---,-99.99,VWS V14.01,2013-06-08 01:37:00,
2013-06-07 18:42:00,67.5,18.2,30.21,West,259,15.4,15.4,15,-99.99,,---,-99.99,VWS V14.01,2013-06-08 01:42:00,
2013-06-07 18:47:00,67.3,18.1,30.21,West,263,16.3,16.3,15,-99.99,,---,-99.99,VWS V14.01,2013-06-08 01:47:00,
2013-06-07 18:52:00,67.1,17.9,30.21,WSW,252,20.6,20.6,15,-99.99,,---,-99.99,VWS V14.01,2013-06-08 01:52:00,
2013-06-07 18:57:00,67.1,17.9,30.21,WSW,248,16.8,17.4,15,-99.99,,---,-99.99,VWS V14.01,2013-06-08 01:57:00,
2013-06-07 19:02:00,67.1,17.9,30.21,WSW,254,18.8,18.8,15,-99.99,,---,-99.99,VWS V14.01,2013-06-08 02:02:00,
2013-06-07 19:07:00,67.1,17.9,30.21,WSW,257,15.4,15.4,15,-99.99,,---,-99.99,VWS V14.01,2013-06-08 02:07:00,
2013-06-07 19:12:00,66.9,17.8,30.21,West,264,16.8,16.8,15,-99.99,,---,-99.99,VWS V14.01,2013-06-08 02:12:00,
2013-06-07 19:17:00,66.9,17.8,30.21,West,261,16.3,16.3,15,-99.99,,---,-99.99,VWS V14.01,2013-06-08 02:17:00,
2013-06-07 19:22:00,66.7,17.6,30.21,WSW,252,15.4,15.4,15,-99.99,,---,-99.99,VWS V14.01,2013-06-08 02:22:00,
2013-06-07 19:27:00,66.4,17.4,30.21,WSW,251,17.4,17.4,15,-99.99,,---,-99.99,VWS V14.01,2013-06-08 02:27:00,
2013-06-07 19:32:00,66.4,17.4,30.21,WSW,249,17.0,19.2,15,-99.99,,---,-99.99,VWS V14.01,2013-06-08 02:32:00,
2013-06-07 19:37:00,66.4,17.4,30.21,WSW,254,18.3,18.3,15,-99.99,,---,-99.99,VWS V14.01,2013-06-08 02:37:00,
2013-06-07 19:43:00,66.4,17.4,30.21,West,262,26.2,26.2,15,-99.99,,---,-99.99,VWS V14.01,2013-06-08 02:43:00,
2013-06-07 19:48:00,66.6,17.5,30.21,West,261,15.9,15.9,15,-99.99,,---,-99.99,VWS V14.01,2013-06-08 02:48:00,
2013-06-07 19:53:00,66.7,17.6,30.21,West,262,21.0,21.0,15,-99.99,,---,-99.99,VWS V14.01,2013-06-08 02:53:00,
2013-06-07 19:58:00,66.7,17.6,30.21,ENE,73,18.8,232.4,15,-99.99,,---,-99.99,VWS V14.01,2013-06-08 02:58:00,
2013-06-07 20:03:00,66.6,17.5,30.21,WSW,253,23.3,23.3,15,-99.99,,---,-99.99,VWS V14.01,2013-06-08 03:03:00,
2013-06-07 20:08:00,66.6,17.5,30.21,West,270,21.0,21.0,15,-99.99,,---,-99.99,VWS V14.01,2013-06-08 03:08:00,
2013-06-07 20:13:00,66.2,17.2,30.21,West,262,20.1,20.1,15,-99.99,,---,-99.99,VWS V14.01,2013-06-08 03:13:00,
2013-06-07 20:18:00,66.2,17.2,30.21,West,262,23.3,23.3,15,-99.99,,---,-99.99,VWS V14.01,2013-06-08 03:18:00,
2013-06-07 20:23:00,66.2,17.2,30.21,West,265,19.7,19.7,15,-99.99,,---,-99.99,VWS V14.01,2013-06-08 03:23:00,
2013-06-07 20:29:00,66.2,17.2,30.21,WSW,258,24.2,24.2,15,-99.99,,---,-99.99,VWS V14.01,2013-06-08 03:29:00,
2013-06-07 20:34:00,66.2,17.2,30.21,West,263,14.1,22.8,15,-99.99,,---,-99.99,VWS V14.01,2013-06-08 03:34:00,
2013-06-07 20:39:00,66.2,17.2,30.21,West,260,21.0,21.0,15,-99.99,,---,-99.99,VWS V14.01,2013-06-08 03:39:00,
2013-06-07 20:44:00,66.4,17.4,30.21,WSW,254,22.4,22.4,15,-99.99,,---,-99.99,VWS V14.01,2013-06-08 03:44:00,
2013-06-07 20:49:00,66.0,17.1,30.21,West,268,23.7,23.7,15,-99.99,,---,-99.99,VWS V14.01,2013-06-08 03:49:00,
2013-06-07 20:54:00,65.8,16.9,30.21,West,275,22.8,22.8,15,-99.99,,---,-99.99,VWS V14.01,2013-06-08 03:54:00,
2013-06-07 20:59:00,65.8,16.9,30.21,West,270,26.2,26.2,15,-99.99,,---,-99.99,VWS V14.01,2013-06-08 03:59:00,
2013-06-07 21:01:00,65.8,16.9,30.21,WSW,241,20.6,26.2,15,-99.99,,---,-99.99,VWS V14.01,2013-06-08 04:01:00,
2013-06-07 21:02:00,66.4,17.4,30.21,WSW,241,20.6,20.6,15,-99.99,,---,-99.99,VWS V14.01,2013-06-08 04:02:00,
2013-06-07 21:07:00,66.4,17.4,30.21,WSW,240,28.4,28.4,15,-99.99,,---,-99.99,VWS V14.01,2013-06-08 04:07:00,
2013-06-07 21:12:00,66.4,17.4,30.21,WSW,258,24.2,24.2,15,-99.99,,---,-99.99,VWS V14.01,2013-06-08 04:12:00,
2013-06-07 21:17:00,66.4,17.4,30.21,West,262,13.2,13.2,15,-99.99,,---,-99.99,VWS V14.01,2013-06-08 04:17:00,
2013-06-07 21:22:00,66.4,17.4,30.21,West,270,23.3,23.3,15,-99.99,,---,-99.99,VWS V14.01,2013-06-08 04:22:00,
2013-06-07 21:27:00,66.4,17.4,30.21,West,280,25.5,25.5,15,-99.99,,---,-99.99,VWS V14.01,2013-06-08 04:27:00,
2013-06-07 21:32:00,66.4,17.4,30.21,WSW,256,20.1,20.1,15,-99.99,,---,-99.99,VWS V14.01,2013-06-08 04:32:00,
2013-06-07 21:37:00,66.6,17.5,30.21,WSW,258,25.1,25.1,15,-99.99,,---,-99.99,VWS V14.01,2013-06-08 04:37:00,
2013-06-07 21:42:00,66.6,17.5,30.21,West,277,13.2,13.2,15,-99.99,,---,-99.99,VWS V14.01,2013-06-08 04:42:00,
2013-06-07 21:47:00,66.6,17.5,30.21,WSW,258,23.7,23.7,15,-99.99,,---,-99.99,VWS V14.01,2013-06-08 04:47:00,
2013-06-07 21:52:00,66.6,17.5,30.21,West,267,24.2,24.2,15,-99.99,,---,-99.99,VWS V14.01,2013-06-08 04:52:00,
2013-06-07 21:57:00,66.9,17.8,30.21,West,264,15.4,15.4,15,-99.99,,---,-99.99,VWS V14.01,2013-06-08 04:57:00,
2013-06-07 22:02:00,66.7,17.6,30.21,WSW,246,19.2,19.2,15,-99.99,,---,-99.99,VWS V14.01,2013-06-08 05:02:00,
2013-06-07 22:07:00,66.7,17.6,30.24,WSW,246,19.2,19.2,15,-99.99,,---,-99.99,VWS V14.01,2013-06-08 05:07:00,
2013-06-07 22:12:00,66.6,17.5,30.24,West,271,25.1,25.1,15,-99.99,,---,-99.99,VWS V14.01,2013-06-08 05:12:00,
2013-06-07 22:17:00,66.6,17.5,30.24,West,260,15.4,25.1,15,-99.99,,---,-99.99,VWS V14.01,2013-06-08 05:17:00,
2013-06-07 22:22:00,66.6,17.5,30.24,West,260,15.4,15.4,15,-99.99,,---,-99.99,VWS V14.01,2013-06-08 05:22:00,
2013-06-07 22:27:00,66.6,17.5,30.21,West,259,11.0,11.0,15,-99.99,,---,-99.99,VWS V14.01,2013-06-08 05:27:00,
2013-06-07 22:32:00,66.6,17.5,30.21,West,259,11.0,11.0,15,-99.99,,---,-99.99,VWS V14.01,2013-06-08 05:32:00,
2013-06-07 22:37:00,67.1,17.9,30.24,West,260,24.2,24.2,15,-99.99,,---,-99.99,VWS V14.01,2013-06-08 05:37:00,
2013-06-07 22:42:00,67.1,17.9,30.24,West,260,24.2,24.2,15,-99.99,,---,-99.99,VWS V14.01,2013-06-08 05:42:00,
2013-06-07 22:47:00,67.1,17.9,30.24,West,272,22.4,22.4,15,-99.99,,---,-99.99,VWS V14.01,2013-06-08 05:47:00,
2013-06-07 22:52:00,67.1,17.9,30.24,WSW,247,9.6,9.6,15,-99.99,,---,-99.99,VWS V14.01,2013-06-08 05:52:00,
2013-06-07 22:57:00,66.6,17.5,30.24,WSW,247,9.6,9.6,15,-99.99,,---,-99.99,VWS V14.01,2013-06-08 05:57:00,
2013-06-07 23:02:00,66.4,17.4,30.24,West,262,19.7,19.7,15,-99.99,,---,-99.99,VWS V14.01,2013-06-08 06:02:00,
2013-06-07 23:07:00,66.2,17.2,30.24,West,262,19.7,19.7,15,-99.99,,---,-99.99,VWS V14.01,2013-06-08 06:07:00,
2013-06-07 23:12:00,65.8,16.9,30.21,WSW,256,15.4,15.4,15,-99.99,,---,-99.99,VWS V14.01,2013-06-08 06:12:00,
2013-06-07 23:17:00,65.8,16.9,30.21,West,270,17.4,17.4,15,-99.99,,---,-99.99,VWS V14.01,2013-06-08 06:17:00,
2013-06-07 23:22:00,66.0,17.1,30.21,West,270,17.4,17.4,15,-99.99,,---,-99.99,VWS V14.01,2013-06-08 06:22:00,
2013-06-07 23:27:00,66.0,17.1,30.21,WSW,250,23.3,23.3,15,-99.99,,---,-99.99,VWS V14.01,2013-06-08 06:27:00,
2013-06-07 23:32:00,66.0,17.1,30.21,WSW,250,23.3,23.3,15,-99.99,,---,-99.99,VWS V14.01,2013-06-08 06:32:00,
2013-06-07 23:37:00,65.8,16.9,30.21,West,266,18.3,18.3,15,-99.99,,---,-99.99,VWS V14.01,2013-06-08 06:37:00,
2013-06-07 23:42:00,65.8,16.9,30.21,West,266,18.3,18.3,15,-99.99,,---,-99.99,VWS V14.01,2013-06-08 06:42:00,
2013-06-07 23:47:00,65.3,16.5,30.21,West,266,18.8,18.8,15,-99.99,,---,-99.99,VWS V14.01,2013-06-08 06:47:00,
2013-06-07 23:52:00,65.3,16.5,30.21,WSW,257,20.6,20.6,15,-99.99,,---,-99.99,VWS V14.01,2013-06-08 06:52:00,
2013-06-07 23:57:00,65.5,16.6,30.21,WSW,257,20.6,20.6,15,-99.99,,---,-99.99,VWS V14.01,2013-06-08 06:57:00,